This is the latest recevied weather packets stored in our database for station/object VE3GSI. If no packets are shown the sender has not sent any weather packets the latest 10 day(s).
| Time | Temp. | Humidity | Pressure | Rain* | Wind** | Luminosity | Snow |
|---|---|---|---|---|---|---|---|
| 1778005566 | 16.11° C | 70% | 1002 hPa | 0 mm | - | - | - |
| 1777995365 | 21.11° C | 64% | 999.6 hPa | 0 mm | - | - | - |
| 1777979165 | 13.33° C | 85% | 998.4 hPa | 0 mm | - | - | - |
| 1777975565 | 12.22° C | 85% | 998.3 hPa | 0 mm | - | - | - |
| 1777971365 | 14.44° C | 79% | 998.1 hPa | 0 mm | - | - | - |
| 1777967164 | 14.44° C | 75% | 998.5 hPa | 0 mm | - | - | - |
| 1777959965 | 12.22° C | 71% | 998.8 hPa | 0 mm | - | - | - |
| 1777958165 | 11.11° C | 73% | 999 hPa | 0 mm | - | - | - |
| 1777956965 | 11.11° C | 72% | 999.3 hPa | 0 mm | - | - | - |
| 1777954565 | 11.67° C | 69% | 999.4 hPa | 0 mm | - | - | - |
| 1777952164 | 12.78° C | 65% | 999.6 hPa | 0 mm | - | - | - |
| 1777950964 | 13.33° C | 63% | 999.8 hPa | 0 mm | - | - | - |
| 1777949766 | 13.33° C | 61% | 999.9 hPa | 0 mm | - | - | - |
| 1777945564 | 13.33° C | 63% | 1000.1 hPa | 0 mm | - | - | - |
| 1777944364 | 13.89° C | 61% | 1000.1 hPa | 0 mm | - | - | - |
| 1777939564 | 17.78° C | 52% | 1000.3 hPa | 0 mm | - | - | - |
| 1777933565 | 20° C | 49% | 1000.1 hPa | 0 mm | - | - | - |
| 1777932965 | 20.56° C | 49% | 1000.2 hPa | 0 mm | - | - | - |
| 1777923365 | 20° C | 50% | 1001.2 hPa | 0 mm | - | - | - |
| 1777921565 | 20° C | 51% | 1001.8 hPa | 0 mm | - | - | - |
| 1777914365 | 19.44° C | 53% | 1002.5 hPa | 0 mm | - | - | - |
| 1777911965 | 18.33° C | 59% | 1002.8 hPa | 0 mm | - | - | - |
| 1777908365 | 17.22° C | 58% | 1003.2 hPa | 0 mm | - | - | - |
| 1777905965 | 16.67° C | 62% | 1003.2 hPa | 0 mm | - | - | - |
| 1777901765 | 14.44° C | 66% | 1003.6 hPa | 0 mm | - | - | - |
* Rain latest hour (hover to see other rain measurements)
** Current wind speed in m/s (hover to see current wind gust speed)